[[{"header":{"parameterUnit":"m.s-1","parameterCategory":1,"la1":30.2991,"la2":30.254,"lo1":-89.0895,"lo2":-89.0444,"dy":0.0017,"dx":0.0017,"nx":28,"ny":28,"refTime":"2024-06-03T09:00:00:Z","depth":0,"parameterNumber":2,"parameterNumberName":"U-component_of_WINDS"},"data":[0,0,0,0,0,0,0,0,0,0,0,0,0,0,0,0,0,0,0,0,0,0,0,0,0,0,0,0,0,0,0,0,0,0,0,0,0,0,0,0,0,0,0,0,0,0,0,0,0,0,0,0,0,0,0,0,0,0,-1.0432,-1.0433,0,-1.0526,-1.0527,-1.0528,-1.0582,-1.0582,-1.0582,-1.0582,-1.0678,-1.068,-1.0683,0,0,0,0,0,0,0,0,0,0,0,0,0,-1.0299,-1.0302,-1.0432,-1.0433,-1.0434,-1.0526,-1.0527,-1.0528,-1.0582,-1.0582,-1.0582,-1.0583,-1.0677,-1.068,-1.0683,0,0,0,0,0,0,0,0,0,0,0,0,0,-1.0371,-1.0302,-1.0432,-1.0472,-1.0476,-1.0526,-1.0527,-1.0529,-1.0582,-1.0582,-1.0582,-1.0583,-1.0676,-1.068,-1.0683,-1.0699,0,0,-1.0694,-1.0696,0,0,0,0,0,0,0,0,-1.0367,-1.0376,-1.0465,-1.0469,-1.0474,-1.0543,-1.0516,-1.0586,-1.0582,-1.0542,-1.0582,-1.0583,-1.0633,-1.064,-1.0657,-1.0704,-1.0708,-1.0694,-1.0697,-1.0698,-1.0699,0,0,0,0,0,0,0,-1.0362,-1.0373,-1.0469,-1.0466,-1.0472,-1.0486,-1.0496,-1.0529,-1.0584,-1.0545,-1.0549,-1.056,-1.0635,-1.0653,-1.0659,-1.0709,-1.0694,-1.0698,-1.07,-1.0701,-1.0777,-1.0776,0,0,0,0,0,0,-1.0351,-1.0368,-1.0466,-1.0472,-1.042,-1.0488,-1.05,-1.052,-1.0584,-1.0594,-1.0559,-1.0562,-1.0647,-1.0655,-1.0663,-1.0687,-1.0698,-1.0701,-1.0703,-1.0777,-1.0777,-1.0776,0,0,0,0,0,0,-1.0348,-1.0359,-1.0462,-1.0421,-1.0435,-1.049,-1.0513,-1.0522,-1.054,-1.0595,-1.0605,-1.0568,-1.0648,-1.0658,-1.0691,-1.0691,-1.0703,-1.0706,-1.0777,-1.0777,-1.0776,-1.0735,0,0,0,0,0,0,-1.0344,-1.0358,-1.0364,-1.0421,-1.0437,-1.0488,-1.0513,-1.0524,-1.0546,-1.055,-1.0605,-1.0615,-1.0649,-1.0685,-1.0694,-1.0696,-1.0709,-1.0777,-1.0777,-1.0777,-1.0737,-1.0734,-1.0731,0,0,0,0,0,-1.0339,-1.0348,-1.0364,-1.0375,-1.0446,-1.0488,-1.0497,-1.0536,-1.0546,-1.0553,-1.0589,-1.0613,-1.069,-1.0688,-1.0698,-1.0702,-1.0777,-1.0777,-1.0777,-1.0738,-1.0734,-1.0731,0,0,0,0,0,0,-1.0289,-1.0356,-1.0375,-1.0402,-1.0439,-1.0497,-1.0507,-1.0531,-1.0565,-1.0567,-1.0615,-1.0627,-1.0655,-1.0682,-1.0678,-1.0722,-1.0736,-1.0738,-1.0703,-1.07,-1.0697,-1.069,-1.0712,0,0,0,0,0,-1.0281,-1.0309,-1.0366,-1.0386,-1.0403,-1.0452,-1.0471,-1.0498,-1.0538,-1.0554,-1.0592,-1.0629,-1.0662,-1.0683,-1.0716,-1.0741,-1.0754,-1.0749,-1.0746,-1.0743,-1.0744,-1.0761,-1.076,-1.0775,-1.0775,-1.0775,0,0,-1.0266,-1.0306,-1.032,-1.0377,-1.0408,-1.0436,-1.0464,-1.0492,-1.0514,-1.0558,-1.0591,-1.062,-1.0666,-1.0695,-1.071,-1.0718,-1.0743,-1.0743,-1.074,-1.0743,-1.0761,-1.0759,-1.0758,-1.0775,-1.0775,-1.0775,0,0,-1.0252,-1.0284,-1.0305,-1.0336,-1.0384,-1.0416,-1.0421,-1.0476,-1.0497,-1.0531,-1.0565,-1.0592,-1.0647,-1.0679,-1.0702,-1.0701,-1.0725,-1.0711,-1.0696,-1.0712,-1.071,-1.071,-1.0711,-1.071,-1.0712,-1.0712,-1.0712,0,-1.0226,-1.027,-1.0312,-1.0339,-1.0363,-1.0405,-1.0426,-1.0455,-1.051,-1.0526,-1.0535,-1.0607,-1.064,-1.0678,-1.0678,-1.0695,-1.0703,-1.0705,-1.0707,-1.0707,-1.0707,-1.0708,-1.0708,-1.071,-1.071,-1.071,-1.071,0,-1.0237,-1.0266,-1.0277,-1.0331,-1.0356,-1.038,-1.0427,-1.0447,-1.0473,-1.0505,-1.054,-1.0582,-1.0625,-1.0636,-1.066,-1.0678,-1.0682,-1.0698,-1.0714,-1.0702,-1.0705,-1.0705,-1.0707,-1.0708,-1.0708,-1.0709,0,0,-1.0193,-1.0271,-1.0274,-1.0299,-1.0356,-1.038,-1.0407,-1.0449,-1.0467,-1.0504,-1.0528,-1.0575,-1.0591,-1.0618,-1.0646,-1.066,-1.0659,-1.0676,-1.0677,-1.0672,-1.0682,-1.0669,-1.0669,-1.0675,-1.0676,-1.0676,-1.0679,0,-1.0187,-1.0236,-1.0276,-1.0311,-1.034,-1.038,-1.0404,-1.0441,-1.0472,-1.0501,-1.0536,-1.0568,-1.0587,-1.0603,-1.0619,-1.0656,-1.0662,-1.0656,-1.0699,-1.0699,-1.0686,-1.067,-1.0657,-1.0657,-1.068,-1.068,-1.068,0,-1.0187,-1.0224,-1.0261,-1.0317,-1.033,-1.035,-1.0394,-1.0421,-1.0465,-1.0487,-1.0517,-1.0547,-1.0578,-1.059,-1.0634,-1.0629,-1.0649,-1.067,-1.0671,-1.0676,-1.0689,-1.0676,-1.0658,-1.0658,-1.0681,-1.0681,-1.0681,0,-1.0152,-1.0211,-1.0242,-1.0262,-1.0327,-1.0341,-1.0368,-1.0413,-1.0436,-1.0474,-1.049,-1.0531,-1.0553,-1.0584,-1.0625,-1.0631,-1.0665,-1.068,-1.0684,-1.0683,-1.0689,-1.0688,-1.0675,-1.0701,-1.0701,-1.0701,-1.0701,0,-1.0142,-1.0164,-1.0227,-1.0246,-1.0272,-1.0318,-1.0342,-1.0373,-1.0413,-1.0439,-1.0477,-1.0501,-1.0553,-1.0583,-1.0616,-1.0647,-1.0657,-1.0676,-1.0684,-1.0673,-1.067,-1.0686,-1.0687,-1.0702,-1.0701,-1.0701,-1.0701,0,-1.0107,-1.0151,-1.0187,-1.0246,-1.0261,-1.0278,-1.0328,-1.0349,-1.0382,-1.0415,-1.0425,-1.0478,-1.0516,-1.056,-1.0612,-1.0634,-1.0663,-1.0675,-1.0648,-1.0653,-1.0655,-1.0654,-1.0651,-1.0654,-1.0678,-1.0677,-1.0677,0,-1.0098,-1.0116,-1.0177,-1.0197,-1.0224,-1.0256,-1.0281,-1.0327,-1.0351,-1.0404,-1.0418,-1.0459,-1.0494,-1.0553,-1.0596,-1.0637,-1.065,-1.0647,-1.0657,-1.0645,-1.0651,-1.065,-1.0652,-1.0644,-1.0643,-1.0643,-1.0642,0,-1.0077,-1.0098,-1.0132,-1.0174,-1.0203,-1.0238,-1.0275,-1.029,-1.0344,-1.0369,-1.0409,-1.0436,-1.049,-1.0531,-1.0577,-1.0606,-1.0634,-1.0639,-1.0642,-1.0631,-1.0615,-1.0624,-1.0641,-1.0639,-1.0639,-1.0639,-1.064,-1.064,-1.0056,-1.0074,-1.012,-1.0157,-1.019,-1.0224,-1.0246,-1.0283,-1.0317,-1.0365,-1.039,-1.043,-1.0475,-1.054,-1.0569,-1.0601,-1.061,-1.0614,-1.0615,-1.0616,-1.0613,-1.0609,-1.0609,-1.0609,-1.0609,-1.061,-1.061,0,-1.0037,-1.0069,-1.0103,-1.0154,-1.0184,-1.0207,-1.025,-1.0273,-1.0307,-1.0347,-1.0382,-1.0428,-1.0468,-1.0515,-1.0558,-1.0575,-1.0589,-1.0585,-1.0584,-1.0591,-1.0602,-1.0595,-1.0573,-1.0573,-1.0573,-1.0573,-1.0573,-1.0573,-1.0031,-1.0064,-1.009,-1.014,-1.0172,-1.0211,-1.0234,-1.0266,-1.0298,-1.0348,-1.0382,-1.0412,-1.0456,-1.0503,-1.0541,-1.0554,-1.0568,-1.0561,-1.0577,-1.0586,-1.059,-1.0592,-1.0586,-1.0563,-1.0563,-1.0564,-1.0564,-1.0564]},{"header":{"parameterUnit":"m.s-1","parameterCategory":1,"la1":30.2991,"la2":30.254,"lo1":-89.0895,"lo2":-89.0444,"dy":0.0017,"dx":0.0017,"nx":28,"ny":28,"refTime":"2024-06-03T09:00:00:Z","depth":0,"parameterNumber":3,"parameterNumberName":"V-component_of_WINDS"},"data":[0,0,0,0,0,0,0,0,0,0,0,0,0,0,0,0,0,0,0,0,0,0,0,0,0,0,0,0,0,0,0,0,0,0,0,0,0,0,0,0,0,0,0,0,0,0,0,0,0,0,0,0,0,0,0,0,0,0,3.2479,3.248,0,3.2533,3.2534,3.2534,3.2498,3.2497,3.2495,3.2493,3.2545,3.2548,3.2551,0,0,0,0,0,0,0,0,0,0,0,0,0,3.2341,3.2344,3.2479,3.248,3.2481,3.2533,3.2534,3.2534,3.2499,3.2497,3.2495,3.2493,3.2545,3.2548,3.2551,0,0,0,0,0,0,0,0,0,0,0,0,0,3.2399,3.2345,3.2479,3.2469,3.2469,3.2533,3.2534,3.2535,3.2499,3.2496,3.2494,3.2492,3.2543,3.2548,3.2552,3.2628,0,0,3.2565,3.2567,0,0,0,0,0,0,0,0,3.2395,3.2404,3.247,3.247,3.247,3.2506,3.2504,3.2566,3.25,3.2487,3.2493,3.2491,3.2534,3.2539,3.2555,3.263,3.2633,3.2566,3.2568,3.257,3.2571,0,0,0,0,0,0,0,3.2391,3.2401,3.25,3.2471,3.2471,3.246,3.2466,3.2516,3.2524,3.2488,3.2486,3.2493,3.2534,3.2551,3.2556,3.2633,3.2566,3.2569,3.2572,3.2574,3.2771,3.2774,0,0,0,0,0,0,3.2389,3.2398,3.2499,3.2502,3.2426,3.2465,3.2471,3.2497,3.2523,3.2525,3.2495,3.2491,3.2544,3.2551,3.2557,3.2646,3.257,3.2574,3.2577,3.2769,3.2772,3.2775,0,0,0,0,0,0,3.2386,3.2398,3.2496,3.2449,3.2461,3.247,3.2499,3.2499,3.2516,3.2528,3.2529,3.2511,3.2543,3.2551,3.261,3.2648,3.2576,3.258,3.2766,3.277,3.2773,3.2826,0,0,0,0,0,0,3.2382,3.2397,3.2428,3.245,3.2464,3.255,3.2502,3.2502,3.2524,3.252,3.2543,3.2545,3.2541,3.2604,3.2615,3.2652,3.2584,3.2762,3.2768,3.2772,3.2821,3.2831,3.284,0,0,0,0,0,3.2377,3.244,3.2429,3.2442,3.2502,3.2552,3.256,3.2555,3.2527,3.2557,3.2564,3.2544,3.2642,3.261,3.2622,3.2662,3.276,3.2766,3.2772,3.2817,3.2829,3.284,0,0,0,0,0,0,3.2421,3.2443,3.2431,3.2503,3.2526,3.2546,3.2583,3.2569,3.26,3.2594,3.2586,3.2592,3.2653,3.2663,3.2628,3.2735,3.2696,3.2705,3.2726,3.2738,3.2748,3.2743,3.2587,0,0,0,0,0,3.2439,3.2479,3.2496,3.2558,3.257,3.2575,3.2597,3.2591,3.2614,3.2623,3.2635,3.2657,3.2693,3.2716,3.275,3.2822,3.2826,3.2855,3.2865,3.2872,3.2879,3.2916,3.2929,3.2794,3.2794,3.2794,0,0,3.2476,3.2493,3.2519,3.2567,3.2584,3.2624,3.2583,3.2628,3.2657,3.263,3.2686,3.2696,3.2719,3.2785,3.2815,3.2796,3.2917,3.288,3.2886,3.2889,3.2924,3.2936,3.2948,3.2798,3.2798,3.2797,0,0,3.2565,3.2583,3.2636,3.2654,3.268,3.2683,3.2695,3.2717,3.2722,3.2779,3.2758,3.2792,3.2854,3.2872,3.2888,3.2982,3.2964,3.2993,3.3043,3.3079,3.3089,3.3098,3.313,3.3142,3.3,3.3,3.3,0,3.2608,3.267,3.2664,3.271,3.2731,3.2708,3.276,3.2778,3.2813,3.2827,3.2806,3.2881,3.2896,3.2964,3.2987,3.3002,3.3015,3.299,3.3088,3.3098,3.3106,3.3136,3.3148,3.3004,3.3003,3.3003,3.3003,0,3.272,3.2763,3.2802,3.2837,3.2862,3.2911,3.2912,3.2937,3.2929,3.2933,3.299,3.3007,3.3042,3.3058,3.3051,3.3125,3.3112,3.309,3.305,3.3122,3.315,3.3162,3.3008,3.3007,3.3006,3.3005,0,0,3.2838,3.2869,3.2883,3.2898,3.2925,3.2957,3.3004,3.3039,3.3061,3.3086,3.3123,3.3175,3.3154,3.3174,3.3168,3.32,3.327,3.3173,3.3173,3.3189,3.335,3.3366,3.338,3.3258,3.3261,3.3262,3.3348,0,3.2927,3.301,3.3006,3.3083,3.3121,3.3099,3.3139,3.3159,3.3164,3.3196,3.32,3.3237,3.3207,3.3218,3.3249,3.3255,3.3302,3.3249,3.3292,3.3293,3.3285,3.3395,3.3412,3.3492,3.3359,3.3361,3.3362,0,3.3042,3.3071,3.3152,3.3171,3.3187,3.3224,3.3255,3.3286,3.3307,3.3308,3.3329,3.3317,3.3363,3.3323,3.3384,3.3348,3.3365,3.337,3.3373,3.3376,3.3331,3.3399,3.3517,3.3529,3.338,3.3378,3.3377,0,3.3118,3.3178,3.3233,3.3247,3.3271,3.3297,3.3308,3.3327,3.3348,3.3374,3.3387,3.3419,3.3436,3.3459,3.3456,3.3427,3.3517,3.3478,3.3518,3.3518,3.3537,3.3536,3.3658,3.355,3.355,3.355,3.355,0,3.3217,3.3267,3.3267,3.3301,3.3356,3.3349,3.3403,3.3411,3.3428,3.3462,3.3445,3.3476,3.347,3.3501,3.3499,3.3549,3.3557,3.3558,3.3556,3.3558,3.3558,3.3569,3.3563,3.3553,3.3553,3.3552,3.3551,0,3.3311,3.3314,3.3372,3.339,3.3396,3.3435,3.3449,3.3481,3.3484,3.3527,3.3536,3.3541,3.3576,3.3575,3.3616,3.3614,3.3675,3.3667,3.3668,3.3666,3.3705,3.3701,3.3838,3.3855,3.3738,3.3739,3.374,0,3.3374,3.3412,3.3434,3.3455,3.3468,3.3504,3.3525,3.3519,3.3542,3.3568,3.3595,3.3629,3.3656,3.3714,3.372,3.375,3.3743,3.3789,3.3747,3.3748,3.3741,3.3739,3.3742,3.3796,3.3798,3.3799,3.38,0,3.3484,3.3483,3.3515,3.3546,3.3572,3.3596,3.3618,3.3637,3.3634,3.3659,3.3696,3.3717,3.3758,3.3791,3.382,3.383,3.3814,3.3813,3.3823,3.3826,3.3824,3.3824,3.3688,3.381,3.3809,3.3808,3.3807,3.3807,3.3564,3.3595,3.3615,3.365,3.3666,3.3687,3.3717,3.3723,3.3754,3.3787,3.3782,3.3822,3.384,3.3877,3.389,3.392,3.3904,3.392,3.3923,3.3927,3.3931,3.382,3.3925,3.3925,3.3925,3.3925,3.3924,0,3.3672,3.3683,3.3715,3.3747,3.3774,3.3757,3.3781,3.3804,3.384,3.3858,3.3885,3.3926,3.3958,3.3966,3.3996,3.4019,3.4012,3.4027,3.4024,3.4027,3.3945,3.3932,3.4032,3.4032,3.4032,3.4032,3.4032,3.4032,3.3731,3.3783,3.3784,3.3843,3.3854,3.3894,3.3908,3.3927,3.3941,3.3988,3.4014,3.402,3.4033,3.4064,3.4092,3.4093,3.4105,3.4122,3.412,3.4043,3.4033,3.4022,3.401,3.4125,3.4125,3.42,3.42,3.4201]}]]